Regional Weather Roundup
Issued by NWS

Current Version | Previous Version | Text Only | Print | Product List | Glossary Off
Versions: 1 2 3 4 5 6 7 8 9 10 11 12 13 14 15 16 17 18 19 20 21 22 23 24 25 26 27 28 29 30 31 32 33 34 35 36 37 38 39 40 41 42 43 44 45 46 47 48 49

000
ASUS44 KBMX 200210
RWRAL

ALABAMA REGIONAL WEATHER ROUNDUP
NATIONAL WEATHER SERVICE BIRMINGHAM AL
800 PM CST FRI DEC 19 2014

NOTE: "FAIR" INDICATES FEW OR NO CLOUDS BELOW 12,000 FEET
WITH NO SIGNIFICANT WEATHER AND/OR OBSTRUCTIONS TO VISIBILITY.

THE REMARK "TC" DENOTES TEMPERATURE IN DEGREES CELSIUS.

ALZ001>011-014-016>018-020-200300-
NORTH ALABAMA

CITY           SKY/WX    TMP DP  RH WIND       PRES   REMARKS
MUSCLE SHOALS  CLOUDY    41  31  67 E5        30.22S
HUNTSVILLE     LGT RAIN  42  30  62 NE7       30.22R
DECATUR        CLOUDY    40  29  64 NE5       30.22R
HALEYVILLE     LGT RAIN  36  35  96 CALM      30.21F
GADSDEN        CLOUDY    43  36  75 NW5       30.21R
$$

ALZ012-013-022-023-030>036-040>044-200300-
WEST CENTRAL ALABAMA

CITY           SKY/WX    TMP DP  RH WIND       PRES   REMARKS
TUSCALOOSA     LGT RAIN  44  42  93 CALM      30.20F
$$

ALZ015-024>027-033>036-040>044-200300-
CENTRAL ALABAMA

CITY           SKY/WX    TMP DP  RH WIND       PRES   REMARKS
BIRMINGHAM     LGT RAIN  42  39  89 NE3       30.20F
MONTGOMERY     LGT RAIN  47  42  83 N5        30.18S
SHELBY CO ARPT LGT RAIN  44  40  85 N3        30.18F FOG
MAXWELL AFB    LGT RAIN  46  43  90 N5        30.17F
GREENVILLE     LGT RAIN  46  43  89 N8        30.15R
$$

ALZ019-021-028-029-037-038-045>048-200300-
EAST CENTRAL ALABAMA

CITY           SKY/WX    TMP DP  RH WIND       PRES   REMARKS
ANNISTON       LGT RAIN  43  38  82 SW3       30.20R
ALEXANDER CITY LGT RAIN  47  40  79 CALM      30.17R
AUBURN         CLOUDY    46  36  66 N6        30.19R
$$

ALZ051>064-200300-
SOUTHWEST ALABAMA

CITY           SKY/WX    TMP DP  RH WIND       PRES   REMARKS
MOBILE         RAIN      47  46  97 NE9       30.13R FOG
BROOKLEY FIELD RAIN      50  47  89 N14       30.14R
EVERGREEN      RAIN      47  45  93 N3        30.17R FOG
$$

ALZ049-050-065>069-200300-
SOUTHEAST ALABAMA

CITY           SKY/WX    TMP DP  RH WIND       PRES   REMARKS
DOTHAN         LGT RAIN  48  45  89 N3        30.15F
OZARK          CLOUDY    48  45  87 N3        30.14R
TROY           LGT RAIN  47  43  86 NW6       30.16R
EUFAULA        LGT RAIN  49  44  83 CALM      30.13S
$$


USA.gov is the U.S. government's official web portal to all federal, state and local government web resources and services.